Regional Weather Roundup
Issued by NWS

Home | Current Version | Previous Version | Text Only | Print | Product List | Glossary On
Versions: 1 2 3 4 5 6 7 8 9 10 11 12 13 14 15 16 17 18 19 20 21 22 23 24 25 26 27 28 29 30 31 32 33 34 35 36 37 38 39 40 41 42 43 44 45 46 47 48 49 50
000
ASUS42 KFFC 192103
RWRGA
WEATHER ROUNDUP FOR GEORGIA
NATIONAL WEATHER SERVICE PEACHTREE CITY GA
400 PM EST FRI DEC 19 2014

NOTE: "FAIR" INDICATES FEW OR NO CLOUDS BELOW 12,000 FEET WITH NO
SIGNIFICANT WEATHER AND/OR OBSTRUCTIONS TO VISIBILITY.

* = USE WITH CAUTION. THE STATIONS MARKED WITH AN ASTERISK MAY NOT
REPORT WEATHER SUCH AS PRECIPITATION, FOG, OR THUNDER AND ARE NOT
QUALITY CONTROLLED BY NWS.

THE REMARK "TC" DENOTES TEMPERATURE READING IN DEGREES CELSIUS.

GAZ001>058-192200-
NORTH GEORGIA

CITY           SKY/WX    TMP DP  RH WIND       PRES   REMARKS
ATLANTA        CLOUDY    53  35  50 NW5       30.09F
ATHENS         CLOUDY    57  33  40 CALM      30.09S
CHAMBLEE       CLOUDY    52  35  52 NW6       30.09S
PEACHTREE CITY CLOUDY    54  36  50 CALM      30.10S
ROME           CLOUDY    48  32  53 NW8       30.13S
WEST ATLANTA   CLOUDY    50  34  54 NW7       30.10S
GAINESVILLE    CLOUDY    53  35  50 CALM      30.09F
CARTERSVILLE   CLOUDY    48  33  56 CALM      30.13S


CITY           SKY/WX    TMP DP  RH WIND       PRES   REMARKS
DALTON*        CLOUDY    45  32  61 N8        30.15S
LAWRENCEVILLE* SUNNY     55  32  41 CALM      30.08S
MARIETTA       CLOUDY    49  34  56 NW6       30.10S
KENNESAW*      PTSUNNY   48  30  49 N6        30.13S
$$

GAZ059>098-102>109-192200-
CENTRAL GEORGIA

CITY           SKY/WX    TMP DP  RH WIND       PRES   REMARKS
AUGUSTA-BUSH   PTSUNNY   62  38  40 W3        30.09R
AUGUSTA-DANIEL PTSUNNY   62  38  40 CALM      30.09R
COLUMBUS       CLOUDY    55  35  47 NW5       30.10F
MACON          PTSUNNY   58  37  45 CALM      30.09F
ROBINS AFB     PTSUNNY   59  38  45 CALM      30.09F


CITY           SKY/WX    TMP DP  RH WIND       PRES   REMARKS
LAGRANGE*      CLOUDY    57  41  55 CALM      30.10S
SYLVANIA*      PTSUNNY   61  44  53 CALM      30.10R
MILLEDGEVILLE* PTSUNNY   59  43  55 CALM      30.09S
$$

GAZ099>101-110>166-192200-
SOUTH GEORGIA

CITY           SKY/WX    TMP DP  RH WIND       PRES   REMARKS
SAVANNAH       PTSUNNY   62  38  40 W6        30.10F
VALDOSTA       LGT RAIN  64  40  41 SE6       30.06F
ALMA           PTSUNNY   64  36  35 CALM      30.09S
ST SIMONS      SUNNY     61  43  51 E6        30.10S
FT STEWART     CLOUDY    62  41  46 CALM      30.08F
ALBANY         MOSUNNY   59  37  44 CALM      30.11F
HUNTER AFB     CLOUDY    63  38  40 SW3       30.08S
MOODY AFB      CLOUDY    65  40  39 E3        30.07F
BRUNSWICK      SUNNY     64  36  34 CALM      30.10S


CITY           SKY/WX    TMP DP  RH WIND       PRES   REMARKS
BAINBRIDGE*    PTSUNNY   63  43  48 N5        30.08F
MOULTRIE*      MOSUNNY   63  41  45 CALM      30.08R
VIDALIA*       PTSUNNY   61  45  55 SW3       30.10R
WAYCROSS*      PTSUNNY   68  39  34 NW3       30.09S
DOUGLAS*       MOSUNNY   64  34  32 NW3       30.11S
$$


USA.gov is the U.S. government's official web portal to all federal, state and local government web resources and services.